Location: Ames
(42.0350°N, 93.6200°W)
Time: 04:26:47
(UTC-05:00)

ISS - All Passes

Search period start: 25 May 2018 00:00
Search period end: 04 June 2018 00:00
Orbit: 402 x 407 km, 51.6° (Epoch: 25 May)

Date Brightness Start Highest point End Pass type
(mag) Time Alt. Az. Time Alt. Az. Time Alt. Az.
25 May - 01:16:16 10° NW 01:18:52 21° NNE 01:21:28 10° ENE visible
25 May - 02:52:24 10° WNW 02:55:41 85° SW 02:58:56 10° SE visible
25 May - 19:33:00 10° S 19:35:37 23° SE 19:38:15 10° E daylight
25 May - 21:08:46 10° WSW 21:11:56 45° NNW 21:15:06 10° NE visible
25 May - 22:46:48 10° NW 22:49:01 17° N 22:51:15 10° NNE visible
26 May - 00:24:07 10° NNW 00:26:26 18° N 00:28:44 10° NE visible
26 May - 02:00:15 10° NW 02:03:27 53° NNE 02:06:40 10° ESE visible
26 May - 03:37:19 10° W 03:39:41 19° SW 03:42:02 10° S night (unlit)
26 May - 18:42:15 10° SSE 18:43:37 12° SE 18:45:01 10° ESE daylight
26 May - 20:16:25 10° WSW 20:19:40 79° NW 20:22:57 10° NE daylight
26 May - 21:54:03 10° WNW 21:56:34 20° NNW 21:59:05 10° NE visible
26 May - 23:31:51 10° NW 23:33:57 16° N 23:36:02 10° NE visible
27 May - 01:08:08 10° NW 01:11:09 33° NNE 01:14:09 10° E visible
27 May - 02:44:37 10° WNW 02:47:38 34° SW 02:50:38 10° SSE night (unlit)
27 May - 19:24:17 10° SW 19:27:29 54° SE 19:30:42 10° ENE daylight
27 May - 21:01:18 10° W 21:04:08 26° NNW 21:06:58 10° NE daylight
27 May - 22:39:24 10° NW 22:41:26 15° N 22:43:28 10° NE visible
28 May - 00:16:03 10° NW 00:18:45 24° NNE 00:21:29 10° ENE visible
28 May - 01:52:15 10° WNW 01:55:30 68° SW 01:58:43 10° SE visible
28 May - 18:32:30 10° SSW 18:35:21 28° SE 18:38:13 10° ENE daylight
28 May - 20:08:40 10° W 20:11:46 38° NNW 20:14:51 10° NE daylight
28 May - 21:46:45 10° NW 21:48:55 16° N 21:51:03 10° NE visible
28 May - 23:23:54 10° NW 23:26:19 19° NNE 23:28:43 10° ENE visible
29 May - 01:00:01 10° NW 01:03:16 65° NNE 01:06:30 10° ESE visible
29 May - 02:37:27 10° W 02:39:23 15° SW 02:41:19 10° SSW night (unlit)
29 May - 17:41:18 10° S 17:43:18 15° SE 17:45:18 10° E daylight
29 May - 19:16:11 10° WSW 19:19:26 64° NNW 19:22:42 10° NE daylight
29 May - 20:54:00 10° WNW 20:56:24 19° NNW 20:58:49 10° NE daylight
29 May - 22:31:39 10° NW 22:33:48 16° N 22:35:57 10° NE visible
30 May - 00:07:50 10° NW 00:10:57 38° NNE 00:14:02 10° E visible
30 May - 01:44:29 10° WNW 01:47:20 27° SW 01:50:09 10° SSE visible
30 May - 18:23:56 10° SW 18:27:11 69° SE 18:30:27 10° ENE daylight
30 May - 20:01:12 10° WNW 20:03:55 23° NNW 20:06:38 10° NE daylight
30 May - 21:39:14 10° NW 21:41:15 15° N 21:43:16 10° NE visible
30 May - 23:15:43 10° NW 23:18:32 26° NNE 23:21:22 10° E visible
31 May - 00:52:00 10° WNW 00:55:11 53° SW 00:58:22 10° SE visible
31 May - 17:31:58 10° SSW 17:35:00 35° SE 17:38:01 10° ENE daylight
31 May - 19:08:28 10° W 19:11:29 33° NNW 19:14:30 10° NE daylight
31 May - 20:46:36 10° NW 20:48:41 16° N 20:50:46 10° NE daylight
31 May - 22:23:32 10° NW 22:26:04 20° NNE 22:28:35 10° ENE visible
31 May - 23:59:39 10° NW 00:02:57 81° NE 00:06:12 10° ESE visible
01 Jun - 01:37:41 10° WSW 01:38:59 12° SW 01:40:15 10° SSW night (unlit)
01 Jun - 16:40:28 10° S 16:42:52 19° SE 16:45:16 10° E daylight
01 Jun - 18:15:53 10° WSW 18:19:06 52° NNW 18:22:19 10° NE daylight
01 Jun - 19:53:49 10° NW 19:56:08 18° N 19:58:26 10° NE daylight
01 Jun - 21:31:17 10° NNW 21:33:32 17° N 21:35:46 10° NE visible
01 Jun - 23:07:27 10° NW 23:10:36 45° NNE 23:13:46 10° ESE visible
02 Jun - 00:44:17 10° W 00:46:54 22° SW 00:49:30 10° S visible
02 Jun - 17:23:30 10° SW 17:26:46 86° SSE 17:30:04 10° NE daylight
02 Jun - 19:00:59 10° WNW 19:03:35 21° NNW 19:06:12 10° NE daylight
02 Jun - 20:38:54 10° NW 20:40:57 15° N 20:43:00 10° NE daylight
02 Jun - 22:15:15 10° NW 22:18:12 30° NNE 22:21:07 10° E visible
02 Jun - 23:51:38 10° WNW 23:54:44 42° SW 23:57:50 10° SSE visible
03 Jun - 16:31:23 10° SSW 16:34:31 44° SE 16:37:40 10° ENE daylight
03 Jun - 18:08:11 10° W 18:11:06 29° NNW 18:14:01 10° NE daylight
03 Jun - 19:46:18 10° NW 19:48:21 15° N 19:50:23 10° NE daylight
03 Jun - 21:23:04 10° NW 21:25:42 22° NNE 21:28:20 10° ENE visible
03 Jun - 22:59:13 10° WNW 23:02:30 82° SW 23:05:45 10° SE visible
